Location: Possagno
(45.8500°N, 11.8667°E)
Time: 02:02:24
(UTC+00:00)

STARLINK-30 - Pass Details

Date: 07 June 2020
Orbit: 434 x 435 km, 53.0° (Epoch: 05 July)

Event Time Altitude Azimuth Distance (km) Brightness Sun altitude
Exits shadow 01:01:01 14° 136° (SE) 1,290 5.3 -17.0°
Drops below altitude 10° 01:03:15 10° 96° (E) 1,540 6.2 -16.8°
Enters shadow 01:58:39 -72° 239° (WSW) 12,598 10.4 -11.6°
Maximum altitude 02:37:54 88° 329° (NNW) 441 3.1 -6.9°
